Location: Newark
(51.3318°N, 0.0053°E)
Time: 01:27:51
(UTC+00:00)

Envisat - Pass Details

Date: 23 January 2022
Orbit: 764 x 765 km, 98.2° (Epoch: 28 May)

Event Time Altitude Azimuth Distance (km) Brightness Sun altitude
Rises 04:29:16 0° 18° (NNE) 3,243 6.6 -31.0°
Reaches altitude 10° 04:31:41 10° 25° (NNE) 2,312 5.8 -30.6°
Maximum altitude 04:36:33 44° 98° (E) 1,052 4.0 -29.9°
Drops below altitude 10° 04:41:23 10° 170° (S) 2,296 5.5 -29.1°
Sets 04:43:47 0° 177° (S) 3,218 6.2 -28.7°
